Weather History for PAEI - August, 2013

Change the Weather History Date:

Saturday, August 3, 2013

  Actual Average Record
Temperature  
Mean Temperature 68 °F -  
Max Temperature 83 °F 69 °F - (-1)
Min Temperature 53 °F 51 °F - (-1)
Cooling Degree Days 2    
Growing Degree Days 18 (Base 50)    
Moisture  
Dew Point 47 °F    
Average Humidity 53    
Maximum Humidity 75    
Minimum Humidity 25    
Precipitation  
Precipitation 0.00 in - - ()
Sea Level Pressure  
Sea Level Pressure 29.67 in    
Wind  
Wind Speed 2 mph (South)    
Max Wind Speed 14 mph    
Max Gust Speed 28 mph    
Visibility 10 miles    
Events      
Averages and records for this station are not official NWS values.
T = Trace of Precipitation, MM = Missing Value Source: NWS Daily Summary

Daily Weather History Graph

Daily Weather History Graph

Search for Another Location

Airport or City:

Trip Planner

Search our weather history database for the weather conditions in past years. The results will help you decide how hot, cold, wet, or windy it might be!

Date:

Astronomy

Aug. 03, 2013 Rise Set
Actual Time 4:58 AM AKDT 10:48 PM AKDT
Civil Twilight 3:28 AM AKDT 12:15 AM AKDT
Nautical Twilight Sun does not set Sun does not set
Astronomical Twilight Sun does not set Sun does not set
Moon 1:57 AM AKDT (8/3) 8:46 PM AKDT (8/3)
Length of Visible Light 20h 46m
Length of Day
17h 50m
Waning Crescent, 9% of the Moon is Illuminated
Aug 3
Waning Crescent
Aug 6
New
Aug 14
First Quarter
Aug 20
Full
Aug 28
Last Quarter

Hourly Weather History & Observations

Time (AKDT) Temp. Dew Point Humidity Pressure Visibility Wind Dir Wind Speed Gust Speed Precip Events Conditions
12:55 AM 58.3 °F 49.1 °F 71% 29.70 in 10.0 mi Calm Calm - N/A   Clear
1:55 AM 56.7 °F 47.1 °F 70% 29.70 in 10.0 mi Calm Calm - N/A   Clear
2:55 AM 55.9 °F 46.9 °F 72% 29.68 in 10.0 mi Calm Calm - N/A   Clear
3:55 AM 55.4 °F 44.6 °F 67% 29.68 in 10.0 mi Calm Calm - N/A   Clear
4:55 AM 53.1 °F 45.3 °F 75% 29.67 in 10.0 mi Calm Calm - N/A   Clear
5:55 AM 54.7 °F 42.6 °F 64% 29.67 in 10.0 mi West 10.4 mph - N/A   Clear
6:55 AM 56.1 °F 47.1 °F 72% 29.66 in 10.0 mi Calm Calm - N/A   Clear
7:55 AM 57.2 °F 48.4 °F 72% 29.64 in 10.0 mi Calm Calm - N/A   Clear
8:55 AM 59.0 °F 50.0 °F 72% 29.66 in 10.0 mi Calm Calm - N/A   Scattered Clouds
9:55 AM 61.3 °F 52.0 °F 71% 29.67 in 10.0 mi Calm Calm - N/A   Clear
10:55 AM 66.4 °F 50.5 °F 57% 29.67 in 10.0 mi Calm Calm - N/A   Mostly Cloudy
11:55 AM 70.0 °F 48.6 °F 46% 29.67 in 10.0 mi Variable 3.5 mph - N/A   Scattered Clouds
12:55 PM 76.5 °F 41.4 °F 28% 29.68 in 10.0 mi SE 13.8 mph - N/A   Clear
1:55 PM 79.3 °F 42.4 °F 27% 29.67 in 10.0 mi ESE 12.7 mph - N/A   Clear
2:55 PM 81.0 °F 42.3 °F 25% 29.66 in 10.0 mi Variable 6.9 mph - N/A   Mostly Cloudy
3:55 PM 81.5 °F 42.3 °F 25% 29.64 in 10.0 mi Variable 6.9 mph - N/A   Clear
4:55 PM 82.2 °F 44.2 °F 26% 29.63 in 10.0 mi Variable 5.8 mph - N/A   Clear
5:55 PM 78.1 °F 45.7 °F 32% 29.63 in 10.0 mi Variable 5.8 mph - N/A   Scattered Clouds
6:55 PM 74.5 °F 48.2 °F 39% 29.66 in 10.0 mi WSW 11.5 mph 27.6 mph 0.00 in   Scattered Clouds
7:55 PM 70.9 °F 47.7 °F 44% 29.68 in 10.0 mi Calm Calm - N/A   Mostly Cloudy
8:55 PM 70.9 °F 48.4 °F 45% 29.69 in 10.0 mi Calm Calm - N/A   Scattered Clouds
9:55 PM 68.4 °F 49.5 °F 51% 29.70 in 10.0 mi Variable 3.5 mph - N/A   Mostly Cloudy
10:55 PM 66.6 °F 52.2 °F 60% 29.71 in 10.0 mi Calm Calm - N/A   Overcast
11:55 PM 63.5 °F 53.2 °F 69% 29.73 in 10.0 mi Calm Calm - 0.00 in   Overcast